SCOUT B DEB, 37862

Orbit data source: Space-Track

SCOUT B DEB, 37862 is space debris in LEO originally from a launch on Tue, 10 Aug 1965 UTC launched from the Wallops Island (WLPIS). Debris objects in space refer to the collection of defunct objects orbiting the Earth. Examples of debris include non-operational satellites, rocket bodies, and fragments generated from explosions, collisions, or faulty payload assembly.

Loading next visibility...
Identifier
37862, 1965-063AE
Orbit
LEO
Last TLE update
1 day ago
Origin
Manufacturer
Unknown
Mission
Spacecraft
Bus & Motor
Unknown
Mass
Unknown
Launch date (UTC)
1965-08-10 (60 years ago)
Launch vehicle
Unknown
Launch site
Wallops Island (WLPIS)
Object type
Payload
Rocket body
Debris
Shape & HBR
Unknown
Radar Cross Section
Small (<0.1 m²)

Expand to show TLE details & history

TLE from 1 day ago
0 SCOUT B DEB
1 37862U 65063AE  25128.58815768  .00013745  00000-0  25444-1 0  9992
2 37862  69.1486  85.8905 0848212 312.8909  40.3823 12.46830628699750
Epoch: 2025-05-08T14:06Z
Definitive object data (Epoch: 2025-05-08T14:06:56.823Z)
Latitude
0.00004°
Longitude
7.49725°
Altitude
998.459 km
Speed
7.575 km/s
True Right ascension
05h 43m 33s
True Declination
0° 00' 00"
Sunlit
Object was in daylight at TLE epoch
Visualization TLE readout
Latitude
-12.23217°
Longitude
-169.67693°
Altitude
1,759.864 km
Speed
6.875 km/s
Apparent Right ascension
15h 57m 17s
Apparent Declination
-30° 19' 50"
Sunlit
Object is in full shadow
Visualization observer readout
Local Sidereal Time
00:25:57
Azimuth
265.616° W
Elevation
-46.383°
Doppler factor
1
Orbital elements
Apogee altitude
2,142.228 km
Perigee altitude
809.828 km
Semi-major axis
7,854.165 km
Eccentricity
0.0848212
Inclination
69.1486°
RAAN
85.8905°
Arg. of periapsis
312.8909°
True anomaly
47.21435°
Mean anomaly
40.3823°
Eccentric anomaly
43.74252°
Mean motion
3.11812 °/min
BSTAR
0.025444
Orbital period
115.45 mins
Loading maneuver chart data...
Loading SW <> Apogee altitude chart data...
Loading historical data...
Loading historical data...
Loading historical data...
Loading historical data...
Loading historical data...
Loading historical data...
Loading historical data...

SCOUT B DEB Visibility forecast

Observer location: undefined°, undefined°

Span
Click to sort rows by Start time (UTC) header in descending order
Start Az.
Max El. time (UTC)
Max El. Az.
Max El.
End time (UTC)
End Az.
12 mins2025-05-09 21:01:30.849Z145.095° SSE2025-05-09 21:06:30.849Z99.851° ESE23.731°2025-05-09 21:13:30.849Z47.016° ENE
16 mins2025-05-09 22:58:30.849Z221.971° SW2025-05-09 23:04:30.849Z303.097° NW42.484°2025-05-09 23:14:30.849Z22.71° NE
11 mins2025-05-10 01:01:30.849Z296.091° NW2025-05-10 01:05:30.849Z326.327° NNW19.399°2025-05-10 01:12:30.849Z9.937° NNE
6 mins2025-05-10 03:08:30.849Z350.455° N2025-05-10 03:10:30.849Z1.463° NNE11.989°2025-05-10 03:14:30.849Z22.054° NNE
15 mins2025-05-10 05:08:30.849Z352.991° N2025-05-10 05:15:30.849Z33.489° NE20.918°2025-05-10 05:23:30.849Z76.63° E
22 mins2025-05-10 07:06:30.849Z340.1° N2025-05-10 07:17:30.849Z59.605° ENE41.179°2025-05-10 07:28:30.849Z135.73° SSE
20 mins2025-05-10 09:06:30.849Z320.461° NNW2025-05-10 09:16:30.849Z253.932° W35.334°2025-05-10 09:26:30.849Z192.39° SSW
|